Hourly Data Report for October 23, 2015

All times are specified in Local Standard Time (LST). Add 1 hour to adjust for Daylight Saving Time where and when it is observed.

EUREKA CLIMATE
NUNAVUT

79°59'21.000" N
85°56'02.000" W
10.00 m
2401199
71613
NEK

Download Data

Hourly Data (October 2015)
Hourly Data Report for October 23, 2015
Temp Definition
°C
Dew Point Temp Definition
°C
Rel Hum Definition
%
Wind Dir Definition
10's deg

Wind Spd Definition
km/h
Visibility Definition
km
Stn Press Definition
kPa
Hmdx Definition


Wind Chill Definition


Weather Definition


TIME
00:00 -21.2 -23.5 82 29 25   100.76   -33 LegendNANA
01:00 -20.4 -22.8 81 30 30   100.75   -33 LegendNANA
02:00 -20.0 -22.5 80 29 29   100.79   -32 LegendNANA
03:00 -25.2 -27.8 79 9 18   100.84   -36 LegendNANA
04:00 -25.5 -28.0 80 2 13   100.88   -35 LegendNANA
05:00 -26.5 -29.4 76 4 6   100.88   -32 LegendNANA
06:00 -25.7 -28.4 78 3 5   100.85   -31 LegendNANA
07:00 -27.8 -30.3 80 11 9   100.86   -36 LegendNANA
08:00 -27.7 -30.2 79 11 9   100.86   -36 LegendNANA
09:00 -27.2 -29.5 80 8 9   100.83   -35 LegendNANA
10:00 -27.3 -29.8 79 10 14   100.82   -38 LegendNANA
11:00 -27.9 -30.5 78 11 13   100.78   -38 LegendNANA
12:00 -28.3 -30.9 79 11 18   100.78   -40 LegendNANA
13:00 -28.3 -30.9 79 10 14   100.77   -39 LegendNANA
14:00 -27.7 -30.1 80 7 10   100.76   -36 LegendNANA
15:00 -28.6 -31.3 78 8 7   100.74   -36 LegendNANA
16:00 -28.4 -31.0 78 13 3   100.74   -32 LegendNANA
17:00 -29.0 -31.6 79 1 11   100.71   -38 LegendNANA
18:00 -28.4 -31.0 78 13 5   100.71   -34 LegendNANA
19:00 -29.5 -32.2 78 10 11   100.71   -39 LegendNANA
20:00 -29.1 -31.8 78 18 2   100.70   -31 LegendNANA
21:00 -28.0 -30.5 79 13 9   100.70   -36 LegendNANA
22:00 -27.4 -29.9 80 11 3   100.70   -31 LegendNANA
23:00 -27.2 -29.6 80 2 3   100.71   -30 LegendNANA

Notes on Data Quality.

Legend

  • E = Estimated
  • M = Missing
  • NA = Not Available
  • ‡ = Partner data that is not subject to review by the National Climate Archives
Date modified: